Weather History for Ocala, FL

Change the Weather History Date:

Thursday, January 24, 2013

  Actual Average Record
Temperature  
Mean Temperature 54 °F -  
Max Temperature 73 °F 67 °F 82 °F (2002)
Min Temperature 35 °F 42 °F 21 °F (2003)
Degree Days  
Heating Degree Days 11    
Growing Degree Days 4 (Base 50)    
Moisture  
Dew Point 38 °F    
Average Humidity 69    
Maximum Humidity 93    
Minimum Humidity 41    
Precipitation  
Precipitation 0.00 in - - ()
Sea Level Pressure  
Sea Level Pressure 30.29 in    
Wind  
Wind Speed 2 mph (WSW)    
Max Wind Speed 10 mph    
Max Gust Speed 16 mph    
Visibility 8 miles    
Events      
Averages and records for this station are not official NWS values.
T = Trace of Precipitation, MM = Missing Value Source: NWS Daily Summary

Daily Weather History Graph

Daily Weather History Graph

Search for Another Location

Airport:

Trip Planner

Search our weather history database for the weather conditions in past years. The results will help you decide how hot, cold, wet, or windy it might be!

Date:

Astronomy

Jan. 24, 2013 Rise Set
Actual Time 7:21 AM EST 6:00 PM EST
Civil Twilight 6:56 AM EST 6:26 PM EST
Nautical Twilight 6:27 AM EST 6:54 PM EST
Astronomical Twilight 5:59 AM EST 7:23 PM EST
Moon 4:04 PM EST (1/24) 5:15 AM EST (1/24)
Length of Visible Light 11h 29m
Length of Day
10h 39m
Waxing Gibbous, 94% of the Moon is Illuminated
Jan 24
Waxing Gibbous
Jan 26
Full
Feb 3
Last Quarter
Feb 10
New
Feb 17
First Quarter

Hourly Weather History & Observations

Time (EST) Temp. Windchill Dew Point Humidity Pressure Visibility Wind Dir Wind Speed Gust Speed Precip Events Conditions
12:15 AM 39.2 °F - 30.2 °F 70% 30.32 in 10.0 mi Calm Calm - N/A   Clear
12:55 AM 37.4 °F - 28.4 °F 70% 30.31 in 10.0 mi Calm Calm - N/A   Clear
1:15 AM 37.4 °F - 28.4 °F 70% 30.31 in 10.0 mi Calm Calm - N/A   Clear
1:35 AM 39.2 °F - 30.2 °F 70% 30.30 in 10.0 mi Calm Calm - N/A   Clear
1:55 AM 37.4 °F 34.9 °F 28.4 °F 70% 30.30 in 10.0 mi South 3.5 mph - N/A   Clear
2:15 AM 37.4 °F 34.9 °F 28.4 °F 70% 30.30 in 10.0 mi South 3.5 mph - N/A   Clear
2:35 AM 37.4 °F - 28.4 °F 70% 30.30 in 10.0 mi Calm Calm - N/A   Clear
2:55 AM 37.4 °F - 28.4 °F 70% 30.31 in 10.0 mi Calm Calm - N/A   Clear
3:15 AM 37.4 °F - 28.4 °F 70% 30.31 in 10.0 mi Calm Calm - N/A   Clear
3:35 AM 37.4 °F - 28.4 °F 70% 30.31 in 10.0 mi Calm Calm - N/A   Clear
3:55 AM 35.6 °F - 28.4 °F 75% 30.31 in 10.0 mi Calm Calm - N/A   Clear
4:15 AM 35.6 °F - 28.4 °F 75% 30.31 in 10.0 mi Calm Calm - N/A   Clear
4:35 AM 35.6 °F 30.7 °F 28.4 °F 75% 30.29 in 10.0 mi South 5.8 mph - N/A   Clear
4:55 AM 35.6 °F - 28.4 °F 75% 30.29 in 10.0 mi Calm Calm - N/A   Clear
5:15 AM 35.6 °F - 28.4 °F 75% 30.29 in 10.0 mi Calm Calm - N/A   Clear
5:35 AM 37.4 °F - 30.2 °F 75% 30.29 in 10.0 mi Calm Calm - N/A   Clear
5:55 AM 35.6 °F - 28.4 °F 75% 30.30 in 10.0 mi Calm Calm - N/A   Clear
6:15 AM 35.6 °F 32.8 °F 28.4 °F 75% 30.29 in 10.0 mi South 3.5 mph - N/A   Clear
6:35 AM 35.6 °F 32.8 °F 28.4 °F 75% 30.30 in 10.0 mi South 3.5 mph - N/A   Clear
7:50 AM 35.6 °F - 33.8 °F 93% 30.32 in 10.0 mi Calm Calm - N/A   Clear
8:50 AM 46.4 °F - 41.0 °F 81% 30.33 in 7.0 mi Calm Calm - N/A   Clear
9:50 AM 59.0 °F - 46.4 °F 63% 30.34 in 5.0 mi NW 9.2 mph - N/A   Smoke
10:50 AM 64.4 °F - 46.4 °F 52% 30.35 in 5.0 mi West 8.1 mph - N/A   Smoke
11:50 AM 66.2 °F - 48.2 °F 52% 30.32 in 7.0 mi West 6.9 mph 16.1 mph N/A   Clear
12:50 PM 69.8 °F - 46.4 °F 43% 30.28 in 7.0 mi WNW 9.2 mph - N/A   Clear
1:50 PM 71.6 °F - 46.4 °F 41% 30.25 in 9.0 mi WNW 10.4 mph 16.1 mph N/A   Scattered Clouds
2:50 PM 73.4 °F - 48.2 °F 41% 30.24 in 10.0 mi NW 10.4 mph - N/A   Scattered Clouds
3:50 PM 69.8 °F - 46.4 °F 43% 30.24 in 10.0 mi WNW 8.1 mph - N/A   Scattered Clouds
4:50 PM 69.8 °F - 46.4 °F 43% 30.24 in 10.0 mi West 8.1 mph - N/A   Partly Cloudy
5:50 PM 66.2 °F - 46.4 °F 49% 30.25 in 10.0 mi West 4.6 mph - N/A   Clear
6:50 PM 60.8 °F - 50.0 °F 68% 30.26 in 10.0 mi SW 5.8 mph - N/A   Clear
7:55 PM 57.2 °F - 46.4 °F 67% 30.28 in 10.0 mi WSW 4.6 mph - N/A   Clear
8:15 PM 57.2 °F - 46.4 °F 67% 30.28 in 10.0 mi WSW 3.5 mph - N/A   Clear
8:35 PM 55.4 °F - 46.4 °F 72% 30.29 in 10.0 mi SW 3.5 mph - N/A   Clear
8:55 PM 55.4 °F - 46.4 °F 72% 30.29 in 10.0 mi SW 3.5 mph - N/A   Clear
9:15 PM 53.6 °F - 46.4 °F 77% 30.28 in 10.0 mi SSW 3.5 mph - N/A   Clear
9:35 PM 53.6 °F - 46.4 °F 77% 30.29 in 10.0 mi Calm Calm - N/A   Clear
9:55 PM 51.8 °F - 44.6 °F 76% 30.29 in 5.0 mi SSW 3.5 mph - N/A   Clear
10:15 PM 51.8 °F - 44.6 °F 76% 30.30 in 3.0 mi SW 3.5 mph - N/A   Clear
10:35 PM 50.0 °F - 44.6 °F 82% 30.30 in 0.8 mi SSW 3.5 mph - N/A   Unknown
10:55 PM 51.8 °F - 44.6 °F 76% 30.30 in 0.2 mi SSW 3.5 mph - N/A   Mostly Cloudy
11:15 PM 51.8 °F - 44.6 °F 76% 30.30 in 0.8 mi Calm Calm - N/A   Overcast
11:35 PM 51.8 °F - 44.6 °F 76% 30.31 in 5.0 mi Calm Calm - N/A   Mostly Cloudy
11:55 PM 51.8 °F - 46.4 °F 82% 30.31 in 7.0 mi Calm Calm - N/A   Overcast